User: anonymous   Login
Location: Unspecified
(0.0000°N, 0.0000°E)
Time: 07:10:49
(UTC+00:00)
Language:

KEPLER-O (KIPP) - Orbit

View from above orbital plane
View from above orbital plane
View from above satellite
View from above satellite

Ground track
Ground track

The orbit data is extracted from the following two-line orbital elements,

1 43157U 18008C   20223.80891614 +.00000824 +00000-0 +52935-4 0  9995
2 43157 097.4514 291.3232 0014338 320.1692 039.8484 15.11078506141068
Epoch (UTC): 10 August 2020 19:24:50
Eccentricity: 0.0014338
inclination: 97.4514°
perigee height: 523 km
apogee height: 543 km
right ascension of ascending node: 291.3232°
argument of perigee: 320.1692°
revolutions per day: 15.11078506
mean anomaly at epoch: 39.8484°
orbit number at epoch: 14106

The dashed part of the orbit path shows where the satellite is in the earth's shadow,  

DLR